[[{"header":{"parameterUnit":"m.s-1","parameterCategory":2,"la1":30.2991,"la2":30.254,"lo1":-89.0895,"lo2":-89.0444,"dy":0.0017,"dx":0.0017,"nx":28,"ny":28,"refTime":"2025-01-13T03:00:00:Z","depth":"0","parameterNumber":2,"parameterNumberName":"U-component_of_CURRENTS"},"data":[0,0,0,0,0,0,0,0,0,0,0,0,0,0,0,0,0,0,0,0,0,0,0,0,0,0,0,0,0,0,0,0,0,0,0,0,0,0,0,0,0,0,0,0,0,0,0,0,0,0,0,0,0,0,0,0,0,0,0.3322,0.3323,0,0.3341,0.3341,0.3341,0.3326,0.3325,0.3325,0.3324,0.3301,0.33,0.33,0,0,0,0,0,0,0,0,0,0,0,0,0,0.3273,0.3274,0.3322,0.3323,0.3323,0.3341,0.3341,0.3341,0.3326,0.3325,0.3325,0.3324,0.3301,0.33,0.33,0,0,0,0,0,0,0,0,0,0,0,0,0,0.3291,0.3274,0.3322,0.332,0.332,0.3341,0.3341,0.3341,0.3326,0.3325,0.3325,0.3324,0.3301,0.33,0.33,0.331,0,0,0.3299,0.3299,0,0,0,0,0,0,0,0,0.329,0.3292,0.332,0.332,0.332,0.3333,0.3315,0.333,0.3326,0.3321,0.3324,0.3324,0.331,0.3308,0.331,0.3309,0.3308,0.3299,0.3299,0.3298,0.3298,0,0,0,0,0,0,0,0.3289,0.3291,0.3327,0.332,0.3321,0.3318,0.3319,0.3318,0.3315,0.3321,0.3321,0.3327,0.3309,0.3311,0.3309,0.3307,0.3299,0.3298,0.3298,0.3298,0.335,0.3352,0,0,0,0,0,0,0.3293,0.329,0.3326,0.3328,0.3306,0.3319,0.3321,0.3327,0.3316,0.3315,0.3328,0.3327,0.3311,0.331,0.3308,0.3346,0.3298,0.3298,0.3298,0.3349,0.3351,0.3352,0,0,0,0,0,0,0.3291,0.3296,0.3326,0.3312,0.3316,0.3321,0.3328,0.3328,0.3334,0.3322,0.332,0.3335,0.3311,0.3309,0.332,0.3344,0.3298,0.3298,0.3347,0.3349,0.3351,0.3403,0,0,0,0,0,0,0.329,0.3295,0.33,0.3312,0.3317,0.3347,0.3329,0.3329,0.334,0.3339,0.3328,0.3325,0.331,0.3321,0.332,0.3342,0.3297,0.3345,0.3348,0.3351,0.34,0.3407,0.3414,0,0,0,0,0,0.3288,0.3297,0.33,0.3304,0.3323,0.3348,0.335,0.335,0.3341,0.3351,0.3347,0.3325,0.3339,0.3322,0.332,0.3343,0.3343,0.3347,0.3351,0.3396,0.3406,0.3414,0,0,0,0,0,0,0.3272,0.3297,0.33,0.3314,0.3335,0.3346,0.3356,0.3357,0.3362,0.3359,0.3342,0.3339,0.3362,0.3348,0.3329,0.337,0.334,0.3343,0.3376,0.3384,0.3391,0.3401,0.3297,0,0,0,0,0,0.3274,0.3289,0.3313,0.3324,0.3337,0.3349,0.3358,0.3363,0.337,0.3371,0.3364,0.3364,0.3376,0.3375,0.3382,0.3397,0.3409,0.3414,0.3421,0.3427,0.3435,0.3482,0.3495,0.3364,0.3364,0.3364,0,0,0.3269,0.3286,0.3292,0.3322,0.3336,0.336,0.3352,0.3375,0.3393,0.3368,0.3385,0.3389,0.3389,0.3412,0.3421,0.3401,0.3472,0.3431,0.3436,0.3442,0.3488,0.35,0.3511,0.3367,0.3366,0.3366,0,0,0.3271,0.3287,0.3302,0.3325,0.3358,0.3372,0.3382,0.3403,0.3411,0.3433,0.3428,0.345,0.3451,0.3464,0.3469,0.352,0.3513,0.3521,0.3556,0.3602,0.3613,0.3623,0.3662,0.3675,0.3518,0.3518,0.3518,0,0.3263,0.329,0.331,0.3336,0.3359,0.3379,0.3406,0.3422,0.3442,0.3462,0.3444,0.3488,0.348,0.3527,0.3542,0.3536,0.3559,0.352,0.3612,0.3621,0.3631,0.3668,0.3681,0.3521,0.3521,0.352,0.352,0,0.3282,0.3306,0.332,0.3361,0.3387,0.3416,0.3449,0.3476,0.3488,0.3506,0.3555,0.3558,0.3585,0.3589,0.3576,0.3643,0.3638,0.362,0.3588,0.3647,0.3682,0.3695,0.3525,0.3524,0.3523,0.3523,0,0,0.3252,0.3321,0.3323,0.3345,0.3406,0.3422,0.3476,0.3528,0.3563,0.3587,0.3636,0.3661,0.3671,0.3679,0.3677,0.3708,0.3787,0.369,0.3691,0.3726,0.3892,0.3891,0.3905,0.3786,0.3788,0.379,0.3893,0,0.3261,0.3304,0.3346,0.3386,0.3412,0.3465,0.3511,0.356,0.3601,0.3653,0.3685,0.3725,0.3703,0.3721,0.3756,0.3784,0.3823,0.3761,0.3833,0.3835,0.3824,0.3921,0.383,0.3915,0.3906,0.3908,0.391,0,0.3264,0.3294,0.3335,0.3402,0.342,0.3449,0.3532,0.3579,0.367,0.3706,0.3768,0.3793,0.3861,0.3822,0.3916,0.3879,0.3894,0.3906,0.391,0.39,0.3859,0.3854,0.3939,0.3884,0.3929,0.3928,0.3926,0,0.3217,0.3284,0.3313,0.3335,0.3416,0.3448,0.3497,0.3589,0.3644,0.3744,0.3798,0.3875,0.3927,0.3967,0.4006,0.3967,0.4105,0.405,0.4067,0.4066,0.3999,0.3989,0.4035,0.4119,0.4118,0.4118,0.4118,0,0.3207,0.3224,0.3288,0.3298,0.3344,0.3412,0.3474,0.3547,0.3656,0.3729,0.3817,0.3895,0.3967,0.4051,0.4057,0.4127,0.4155,0.4104,0.4107,0.4016,0.4006,0.396,0.3924,0.4122,0.4121,0.412,0.412,0,0.3148,0.3193,0.3224,0.3296,0.3321,0.3348,0.3456,0.3502,0.3624,0.3729,0.3768,0.3935,0.4057,0.4129,0.4214,0.4204,0.4159,0.426,0.4152,0.414,0.4075,0.4044,0.393,0.3791,0.4292,0.4293,0.4294,0,0.312,0.3131,0.3198,0.3213,0.3243,0.3297,0.3341,0.3466,0.3537,0.3746,0.3801,0.3973,0.4087,0.4251,0.4285,0.4342,0.4195,0.4261,0.4164,0.4094,0.4062,0.3875,0.375,0.4097,0.4096,0.4095,0.4094,0,0.3067,0.3092,0.3115,0.315,0.3182,0.3222,0.3304,0.3352,0.3512,0.3623,0.3788,0.3901,0.4123,0.4179,0.4289,0.4298,0.409,0.4245,0.4201,0.3954,0.3723,0.3582,0.4003,0.4087,0.4088,0.4088,0.4089,0.4089,0.302,0.302,0.3052,0.3076,0.3108,0.3125,0.3126,0.3233,0.3328,0.3473,0.367,0.3817,0.4036,0.4203,0.4183,0.4158,0.4058,0.4052,0.4035,0.3862,0.3679,0.4093,0.4159,0.416,0.4161,0.4162,0.4162,0,0.2947,0.2957,0.2977,0.2985,0.2969,0.3025,0.308,0.3068,0.3125,0.3339,0.3474,0.3725,0.3852,0.3994,0.4111,0.3993,0.3747,0.388,0.36,0.3493,0.3917,0.3862,0.3832,0.3832,0.3832,0.3832,0.3832,0.3832,0.2909,0.289,0.2897,0.2838,0.2839,0.2776,0.2774,0.2796,0.2918,0.3063,0.3228,0.3416,0.3825,0.4067,0.4044,0.3922,0.3586,0.3445,0.3364,0.3717,0.373,0.3742,0.3684,0.3617,0.3616,0.2787,0.2782,0.2777]},{"header":{"parameterUnit":"m.s-1","parameterCategory":2,"la1":30.2991,"la2":30.254,"lo1":-89.0895,"lo2":-89.0444,"dy":0.0017,"dx":0.0017,"nx":28,"ny":28,"refTime":"2025-01-13T03:00:00:Z","depth":"0","parameterNumber":3,"parameterNumberName":"V-component_of_CURRENTS"},"data":[0,0,0,0,0,0,0,0,0,0,0,0,0,0,0,0,0,0,0,0,0,0,0,0,0,0,0,0,0,0,0,0,0,0,0,0,0,0,0,0,0,0,0,0,0,0,0,0,0,0,0,0,0,0,0,0,0,0,-0.0055,-0.0055,0,-0.0127,-0.0128,-0.0129,-0.0177,-0.0177,-0.0177,-0.0177,-0.0264,-0.0266,-0.0268,0,0,0,0,0,0,0,0,0,0,0,0,0,-0.0022,-0.0022,-0.0055,-0.0055,-0.0056,-0.0127,-0.0128,-0.0129,-0.0177,-0.0177,-0.0177,-0.0178,-0.0263,-0.0266,-0.0268,0,0,0,0,0,0,0,0,0,0,0,0,0,-0.0061,-0.0022,-0.0054,-0.0087,-0.0091,-0.0126,-0.0128,-0.0129,-0.0177,-0.0177,-0.0177,-0.0178,-0.0262,-0.0266,-0.0269,-0.0284,0,0,-0.0279,-0.028,0,0,0,0,0,0,0,0,-0.0059,-0.0062,-0.0082,-0.0085,-0.0089,-0.0141,-0.0148,-0.0181,-0.0177,-0.0146,-0.0177,-0.0178,-0.0223,-0.0229,-0.0245,-0.0288,-0.0292,-0.0279,-0.0281,-0.0282,-0.0283,0,0,0,0,0,0,0,-0.0056,-0.006,-0.0085,-0.0082,-0.0087,-0.012,-0.0125,-0.0155,-0.0184,-0.0149,-0.0152,-0.0157,-0.0225,-0.0242,-0.0247,-0.0293,-0.0279,-0.0282,-0.0284,-0.0285,-0.0347,-0.0347,0,0,0,0,0,0,-0.0039,-0.0057,-0.0083,-0.0087,-0.0072,-0.012,-0.0126,-0.0126,-0.0184,-0.0192,-0.0157,-0.0159,-0.0236,-0.0244,-0.0251,-0.0253,-0.0282,-0.0285,-0.0287,-0.0348,-0.0347,-0.0347,0,0,0,0,0,0,-0.0038,-0.0041,-0.008,-0.0073,-0.008,-0.0119,-0.0119,-0.0127,-0.0139,-0.0189,-0.0198,-0.016,-0.0237,-0.0246,-0.0268,-0.0257,-0.0287,-0.029,-0.0348,-0.0348,-0.0347,-0.027,0,0,0,0,0,0,-0.0037,-0.004,-0.0035,-0.0071,-0.0079,-0.0089,-0.0119,-0.0128,-0.0141,-0.0145,-0.0195,-0.0203,-0.0237,-0.0263,-0.0271,-0.0262,-0.0292,-0.0348,-0.0348,-0.0347,-0.0273,-0.0267,-0.0262,0,0,0,0,0,-0.0036,-0.0022,-0.0035,-0.0038,-0.0071,-0.0089,-0.0096,-0.0127,-0.0141,-0.014,-0.0173,-0.0202,-0.0266,-0.0265,-0.0275,-0.0267,-0.0349,-0.0348,-0.0347,-0.0276,-0.0268,-0.0262,0,0,0,0,0,0,-0.0004,-0.0026,-0.0041,-0.0035,-0.0056,-0.0096,-0.0098,-0.0119,-0.0146,-0.0148,-0.0197,-0.0208,-0.0225,-0.0256,-0.0254,-0.0284,-0.0312,-0.0314,-0.0254,-0.0248,-0.0243,-0.0221,-0.0295,0,0,0,0,0,0.0005,0.0009,-0.002,-0.0015,-0.0022,-0.0059,-0.007,-0.0089,-0.0117,-0.013,-0.0165,-0.0202,-0.0231,-0.0246,-0.0278,-0.0292,-0.0326,-0.0295,-0.029,-0.0285,-0.0274,-0.032,-0.0318,-0.0345,-0.0345,-0.0345,0,0,0.0018,0.0007,0.0008,-0.0008,-0.0028,-0.0025,-0.0066,-0.0074,-0.0072,-0.0134,-0.0142,-0.0183,-0.0231,-0.0247,-0.0258,-0.0271,-0.0294,-0.0284,-0.0279,-0.0272,-0.0319,-0.0316,-0.0314,-0.0345,-0.0345,-0.0345,0,0,0.0051,0.0037,0.0053,0.0042,0.0024,0.0002,0.0006,-0.0028,-0.0043,-0.0059,-0.0101,-0.0132,-0.0179,-0.0208,-0.023,-0.0214,-0.0264,-0.0228,-0.0182,-0.0226,-0.0224,-0.0222,-0.0257,-0.0259,-0.0224,-0.0224,-0.0224,0,0.0067,0.0084,0.0054,0.0068,0.007,0.0023,0.0044,0.0021,-0.0016,-0.0022,-0.0049,-0.0117,-0.0159,-0.0177,-0.0174,-0.02,-0.0232,-0.02,-0.0218,-0.0217,-0.0217,-0.0253,-0.0256,-0.022,-0.0221,-0.0221,-0.0221,0,0.0112,0.0125,0.0136,0.014,0.0136,0.0146,0.0118,0.0109,0.0082,0.0053,0.0027,-0.0037,-0.0075,-0.0098,-0.0133,-0.0149,-0.0174,-0.0205,-0.023,-0.0209,-0.0249,-0.0253,-0.0215,-0.0216,-0.0217,-0.0218,0,0,0.0156,0.0166,0.0171,0.0191,0.0179,0.0185,0.0191,0.0183,0.0194,0.0136,0.014,0.0071,0.003,0.0003,-0.005,-0.0093,-0.0124,-0.0143,-0.0147,-0.0168,-0.0217,-0.0233,-0.0241,-0.0161,-0.0161,-0.0162,-0.0242,0,0.0203,0.0252,0.0241,0.0289,0.0314,0.0283,0.0298,0.0283,0.0252,0.024,0.0164,0.0142,0.0071,0.0055,0.0001,-0.0089,-0.0135,-0.0099,-0.0241,-0.0245,-0.0255,-0.0246,-0.0223,-0.0293,-0.0247,-0.0248,-0.0249,0,0.0258,0.0285,0.034,0.0377,0.0386,0.0401,0.0421,0.0428,0.0392,0.0364,0.0317,0.0258,0.0195,0.0126,-0.0016,0.001,-0.0093,-0.0173,-0.0179,-0.0223,-0.027,-0.0309,-0.0304,-0.0508,-0.0257,-0.0257,-0.0256,0,0.0317,0.036,0.041,0.042,0.0446,0.0465,0.0477,0.0464,0.0492,0.0442,0.0448,0.035,0.0316,0.0173,0.0013,-0.0004,-0.0149,-0.0195,-0.0307,-0.0309,-0.0331,-0.0334,-0.0531,-0.0299,-0.0299,-0.0299,-0.0298,0,0.038,0.0421,0.0439,0.0467,0.0538,0.0529,0.0589,0.0581,0.0588,0.0634,0.0519,0.0534,0.0325,0.0222,0.0051,-0.0132,-0.0121,-0.0293,-0.033,-0.0303,-0.0303,-0.0515,-0.0652,-0.0302,-0.0301,-0.03,-0.03,0,0.0439,0.0448,0.0511,0.0548,0.0568,0.0617,0.0678,0.0724,0.0708,0.0763,0.0759,0.0676,0.0542,0.033,0.0106,-0.0062,-0.0376,-0.0321,-0.0269,-0.0299,-0.0596,-0.0728,-0.099,-0.1086,-0.0458,-0.0459,-0.046,0,0.0472,0.051,0.0575,0.0625,0.0642,0.0708,0.0766,0.0782,0.0844,0.0865,0.0913,0.0807,0.0767,0.043,0.0112,-0.0187,-0.0403,-0.0381,-0.0416,-0.0607,-0.0783,-0.0885,-0.0954,-0.0417,-0.0418,-0.0418,-0.0418,0,0.0542,0.056,0.0613,0.0712,0.0778,0.0864,0.0948,0.1021,0.1056,0.1108,0.1171,0.1144,0.0833,0.0562,0.0138,-0.0095,-0.0541,-0.0396,-0.0613,-0.0783,-0.0889,-0.0998,-0.037,-0.0421,-0.042,-0.042,-0.042,-0.042,0.0594,0.0644,0.0713,0.081,0.0895,0.101,0.1095,0.1202,0.1324,0.1432,0.1392,0.1402,0.098,0.0419,0.0069,-0.0548,-0.058,-0.0726,-0.0874,-0.096,-0.1054,-0.0424,-0.0506,-0.0506,-0.0506,-0.0507,-0.0507,0,0.0663,0.0717,0.081,0.0921,0.1023,0.1055,0.1215,0.1313,0.1476,0.1599,0.1661,0.1485,0.0952,0.0377,-0.0439,-0.0907,-0.1097,-0.1188,-0.1335,-0.1384,-0.0831,-0.0827,-0.0958,-0.0958,-0.0957,-0.0957,-0.0957,-0.0957,0.0701,0.0795,0.0839,0.1008,0.109,0.1233,0.1329,0.1485,0.1617,0.1766,0.181,0.1803,0.1385,-0.0089,-0.1116,-0.1389,-0.1741,-0.1839,-0.2015,-0.1645,-0.1613,-0.1582,-0.1609,-0.1902,-0.1903,-0.2476,-0.2482,-0.2487]}],[{"header":{"parameterUnit":"m.s-1","parameterCategory":2,"la1":30.2991,"la2":30.254,"lo1":-89.0895,"lo2":-89.0444,"dy":0.0017,"dx":0.0017,"nx":28,"ny":28,"refTime":"2025-01-13T03:00:00:Z","depth":"2","parameterNumber":2,"parameterNumberName":"U-component_of_CURRENTS"},"data":[0,0,0,0,0,0,0,0,0,0,0,0,0,0,0,0,0,0,0,0,0,0,0,0,0,0,0,0,0,0,0,0,0,0,0,0,0,0,0,0,0,0,0,0,0,0,0,0,0,0,0,0,0,0,0,0,0,0,0.322,0.322,0,0.3239,0.3239,0.3239,0.323,0.3229,0.3229,0.3229,0.3213,0.3213,0.3213,0,0,0,0,0,0,0,0,0,0,0,0,0,0.3171,0.3172,0.322,0.322,0.3221,0.3239,0.3239,0.3239,0.323,0.3229,0.3229,0.3229,0.3213,0.3213,0.3213,0,0,0,0,0,0,0,0,0,0,0,0,0,0.3189,0.3172,0.322,0.322,0.3221,0.3239,0.3239,0.3239,0.323,0.3229,0.3229,0.3229,0.3213,0.3213,0.3213,0.3219,0,0,0.3212,0.3212,0,0,0,0,0,0,0,0,0.3188,0.319,0.322,0.322,0.3221,0.3234,0.3217,0.3232,0.323,0.3223,0.3229,0.3228,0.3219,0.3218,0.322,0.3219,0.3218,0.3212,0.3212,0.3212,0.3212,0,0,0,0,0,0,0,0.3187,0.3189,0.3225,0.322,0.3221,0.3218,0.322,0.3219,0.322,0.3224,0.3224,0.3231,0.3219,0.322,0.3219,0.3218,0.3212,0.3212,0.3212,0.3212,0.3268,0.3269,0,0,0,0,0,0,0.319,0.3188,0.3224,0.3226,0.3206,0.322,0.3222,0.3228,0.3221,0.3221,0.3231,0.323,0.322,0.3219,0.3218,0.3261,0.3212,0.3212,0.3212,0.3266,0.3268,0.327,0,0,0,0,0,0,0.3189,0.3193,0.3224,0.3209,0.3213,0.3221,0.3228,0.3229,0.3239,0.3227,0.3226,0.3242,0.322,0.3219,0.3233,0.3259,0.3212,0.3211,0.3264,0.3267,0.3269,0.3323,0,0,0,0,0,0,0.3188,0.3193,0.3199,0.321,0.3215,0.3245,0.3229,0.3229,0.3244,0.3243,0.3236,0.3234,0.322,0.3234,0.3233,0.3257,0.3211,0.3262,0.3265,0.3268,0.3319,0.3327,0.3334,0,0,0,0,0,0.3186,0.3196,0.32,0.3204,0.3223,0.3246,0.3249,0.325,0.3245,0.3256,0.3254,0.3234,0.3253,0.3235,0.3234,0.3258,0.326,0.3264,0.3268,0.3316,0.3325,0.3333,0,0,0,0,0,0,0.3173,0.3197,0.3201,0.3216,0.3236,0.3246,0.3257,0.326,0.3267,0.3267,0.3251,0.3249,0.3275,0.3262,0.3242,0.3286,0.3256,0.3259,0.3293,0.3301,0.3309,0.3317,0.3211,0,0,0,0,0,0.3177,0.3192,0.3214,0.3227,0.324,0.3251,0.3261,0.3267,0.3275,0.3278,0.3274,0.3276,0.3289,0.329,0.3297,0.3314,0.3325,0.3333,0.334,0.3346,0.3355,0.3399,0.3411,0.3282,0.3282,0.3282,0,0,0.3173,0.319,0.3197,0.3226,0.324,0.3263,0.3256,0.328,0.3298,0.3276,0.3296,0.3302,0.3302,0.3327,0.3337,0.3317,0.3391,0.3351,0.3356,0.3361,0.3404,0.3417,0.3428,0.3284,0.3284,0.3283,0,0,0.3178,0.3195,0.3211,0.3233,0.3265,0.3278,0.3289,0.331,0.3321,0.3344,0.3341,0.3364,0.3369,0.3382,0.3387,0.3439,0.3432,0.3442,0.3478,0.3522,0.3533,0.3543,0.358,0.3592,0.3439,0.344,0.344,0,0.3173,0.3199,0.3219,0.3244,0.3266,0.3287,0.3313,0.3331,0.3352,0.3372,0.3358,0.3404,0.3398,0.3445,0.3461,0.3455,0.3477,0.3442,0.3532,0.3541,0.355,0.3586,0.3599,0.3443,0.3442,0.3442,0.3442,0,0.3193,0.3217,0.3232,0.3271,0.3297,0.3326,0.3358,0.3386,0.3402,0.3419,0.3471,0.3475,0.3504,0.3508,0.3496,0.3563,0.3558,0.354,0.3507,0.3567,0.36,0.3613,0.3447,0.3446,0.3445,0.3444,0,0,0.3168,0.3233,0.3236,0.3258,0.3318,0.3333,0.3387,0.3438,0.3473,0.35,0.3551,0.3578,0.359,0.3598,0.3598,0.3628,0.3706,0.3611,0.3612,0.3645,0.3808,0.3798,0.3811,0.3705,0.3708,0.3709,0.3808,0,0.3178,0.322,0.326,0.33,0.3325,0.3377,0.3422,0.3471,0.3513,0.3566,0.3599,0.3641,0.3622,0.3642,0.3677,0.3703,0.3742,0.3681,0.3749,0.3751,0.3732,0.3826,0.3499,0.356,0.382,0.3823,0.3824,0,0.3183,0.3212,0.3253,0.3318,0.3335,0.3364,0.3446,0.3493,0.3583,0.362,0.3683,0.3709,0.3777,0.3741,0.3832,0.3797,0.3812,0.3823,0.3827,0.3807,0.3765,0.3542,0.3573,0.3845,0.3843,0.3842,0.384,0,0.314,0.3205,0.3235,0.3256,0.3333,0.3366,0.3415,0.3505,0.356,0.366,0.3714,0.3791,0.3843,0.3882,0.392,0.3883,0.4014,0.3962,0.3969,0.3968,0.3698,0.367,0.4028,0.4027,0.4027,0.4027,0.4027,0,0.3131,0.315,0.3212,0.3223,0.3269,0.3335,0.3398,0.3469,0.3577,0.3648,0.3736,0.3811,0.3883,0.3963,0.3969,0.4031,0.4062,0.4005,0.4006,0.371,0.3683,0.3927,0.3914,0.4031,0.403,0.4029,0.4028,0,0.3076,0.3121,0.3152,0.3223,0.3248,0.3277,0.3384,0.3429,0.355,0.3652,0.3692,0.3852,0.3967,0.4036,0.4118,0.4104,0.4147,0.4153,0.3809,0.377,0.4053,0.4042,0.4172,0.4173,0.4173,0.4174,0.4174,0,0.3051,0.3062,0.3129,0.3146,0.3176,0.3232,0.3275,0.3398,0.3466,0.3668,0.372,0.3885,0.3985,0.4136,0.4132,0.4173,0.4204,0.3892,0.3765,0.4088,0.4075,0.4063,0.4051,0.3419,0.3413,0.3409,0.3405,0,0.3001,0.3027,0.305,0.3087,0.312,0.3159,0.324,0.3285,0.3441,0.3544,0.3696,0.3797,0.3971,0.3888,0.3975,0.3943,0.386,0.3803,0.4226,0.3456,0.3392,0.3376,0.3385,0.3363,0.3367,0.337,0.3372,0.3374,0.2957,0.2959,0.2991,0.3016,0.3049,0.3064,0.3064,0.3156,0.324,0.334,0.3537,0.3574,0.3645,0.3626,0.3544,0.348,0.3742,0.3542,0.3549,0.3563,0.3482,0.3425,0.3386,0.339,0.3393,0.3397,0.3399,0,0.2884,0.2898,0.2919,0.2928,0.2905,0.2969,0.3019,0.2973,0.3005,0.3129,0.322,0.3013,0.3006,0.3065,0.2922,0.2971,0.2867,0.2834,0.2635,0.2683,0.2725,0.2591,0.2263,0.2259,0.2255,0.2252,0,0,0.2846,0.2825,0.2831,0.2769,0.2778,0.2698,0.2692,0.2653,0.2688,0.2641,0.2637,0.2857,0.2997,0.257,0.2546,0.237,0.2491,0.2283,0.3206,0.3021,0.3056,0.3165,0.3022,0,0,0,0,0]},{"header":{"parameterUnit":"m.s-1","parameterCategory":2,"la1":30.2991,"la2":30.254,"lo1":-89.0895,"lo2":-89.0444,"dy":0.0017,"dx":0.0017,"nx":28,"ny":28,"refTime":"2025-01-13T03:00:00:Z","depth":"2","parameterNumber":3,"parameterNumberName":"V-component_of_CURRENTS"},"data":[0,0,0,0,0,0,0,0,0,0,0,0,0,0,0,0,0,0,0,0,0,0,0,0,0,0,0,0,0,0,0,0,0,0,0,0,0,0,0,0,0,0,0,0,0,0,0,0,0,0,0,0,0,0,0,0,0,0,0.0038,0.0037,0,-0.0031,-0.0032,-0.0033,-0.0081,-0.0081,-0.0081,-0.0082,-0.0165,-0.0167,-0.0169,0,0,0,0,0,0,0,0,0,0,0,0,0,0.007,0.007,0.0038,0.0037,0.0037,-0.0031,-0.0032,-0.0033,-0.0081,-0.0081,-0.0081,-0.0082,-0.0165,-0.0167,-0.0169,0,0,0,0,0,0,0,0,0,0,0,0,0,0.0032,0.007,0.0038,0.0006,0.0002,-0.0031,-0.0032,-0.0033,-0.0081,-0.0081,-0.0081,-0.0082,-0.0164,-0.0167,-0.017,-0.0182,0,0,-0.0179,-0.018,0,0,0,0,0,0,0,0,0.0035,0.0031,0.0011,0.0008,0.0004,-0.0046,-0.0052,-0.0083,-0.0081,-0.0051,-0.0082,-0.0082,-0.0125,-0.0132,-0.0146,-0.0186,-0.019,-0.0179,-0.0181,-0.0182,-0.0183,0,0,0,0,0,0,0,0.0037,0.0033,0.0009,0.0011,0.0006,-0.0025,-0.0031,-0.0058,-0.0087,-0.0054,-0.0057,-0.0062,-0.0128,-0.0143,-0.0148,-0.0191,-0.0179,-0.0182,-0.0184,-0.0185,-0.0245,-0.0245,0,0,0,0,0,0,0.0053,0.0036,0.0011,0.0007,0.0021,-0.0025,-0.0031,-0.0031,-0.0087,-0.0095,-0.0061,-0.0064,-0.0138,-0.0145,-0.0152,-0.0155,-0.0182,-0.0185,-0.0187,-0.0245,-0.0245,-0.0244,0,0,0,0,0,0,0.0054,0.0051,0.0014,0.0021,0.0014,-0.0025,-0.0025,-0.0032,-0.0045,-0.0092,-0.0101,-0.0066,-0.0138,-0.0147,-0.0169,-0.0159,-0.0187,-0.0189,-0.0245,-0.0245,-0.0245,-0.0171,0,0,0,0,0,0,0.0055,0.0052,0.0056,0.0022,0.0015,0.0005,-0.0024,-0.0033,-0.0047,-0.0051,-0.0099,-0.0107,-0.0139,-0.0164,-0.0172,-0.0164,-0.0192,-0.0246,-0.0245,-0.0245,-0.0174,-0.0168,-0.0164,0,0,0,0,0,0.0057,0.007,0.0057,0.0054,0.0022,0.0006,-0.0001,-0.0032,-0.0046,-0.0046,-0.0079,-0.0105,-0.0167,-0.0166,-0.0175,-0.0168,-0.0246,-0.0245,-0.0245,-0.0176,-0.0169,-0.0164,0,0,0,0,0,0,0.0086,0.0065,0.005,0.0056,0.0036,-0.0002,-0.0004,-0.0025,-0.0052,-0.0055,-0.0101,-0.0111,-0.0128,-0.0158,-0.0156,-0.0185,-0.0211,-0.0213,-0.0156,-0.015,-0.0145,-0.0124,-0.0194,0,0,0,0,0,0.0095,0.0099,0.0071,0.0076,0.0069,0.0033,0.0022,0.0003,-0.0024,-0.0037,-0.0071,-0.0106,-0.0134,-0.0148,-0.0179,-0.0192,-0.0225,-0.0195,-0.019,-0.0185,-0.0175,-0.0219,-0.0217,-0.0243,-0.0243,-0.0243,0,0,0.0107,0.0097,0.0097,0.0082,0.0062,0.0066,0.0025,0.0017,0.002,-0.0041,-0.0049,-0.0089,-0.0134,-0.0149,-0.0159,-0.0172,-0.0195,-0.0185,-0.018,-0.0172,-0.0218,-0.0216,-0.0214,-0.0242,-0.0242,-0.0242,0,0,0.0139,0.0125,0.014,0.013,0.0112,0.0092,0.0094,0.0062,0.0047,0.0031,-0.001,-0.004,-0.0085,-0.0113,-0.0133,-0.0118,-0.0167,-0.0132,-0.0087,-0.013,-0.0128,-0.0127,-0.0162,-0.0164,-0.0129,-0.0128,-0.0128,0,0.0154,0.0171,0.0141,0.0155,0.0157,0.0111,0.0132,0.0109,0.0074,0.0067,0.004,-0.0025,-0.0066,-0.0081,-0.008,-0.0105,-0.0137,-0.0105,-0.0123,-0.0122,-0.0122,-0.0158,-0.0162,-0.0125,-0.0125,-0.0126,-0.0126,0,0.0198,0.0211,0.0221,0.0226,0.0222,0.0232,0.0205,0.0196,0.0168,0.014,0.0114,0.0052,0.0016,-0.0007,-0.004,-0.0056,-0.0082,-0.011,-0.0134,-0.0115,-0.0155,-0.016,-0.012,-0.0121,-0.0122,-0.0123,0,0,0.024,0.0251,0.0256,0.0275,0.0264,0.027,0.0276,0.0269,0.0279,0.0222,0.0226,0.016,0.0118,0.0092,0.0041,-0.0001,-0.0034,-0.005,-0.0054,-0.0077,-0.0125,-0.0145,-0.0153,-0.0069,-0.0069,-0.007,-0.0152,0,0.0286,0.0334,0.0324,0.0372,0.0397,0.0367,0.0382,0.0367,0.0337,0.0325,0.0251,0.0229,0.0159,0.0143,0.0089,0.0001,-0.0044,-0.0008,-0.0148,-0.0151,-0.0165,-0.0158,-0.0119,-0.0189,-0.0157,-0.0158,-0.0159,0,0.0339,0.0366,0.0421,0.0458,0.0467,0.0482,0.0502,0.051,0.0475,0.0447,0.04,0.0342,0.028,0.0212,0.0072,0.0097,-0.0004,-0.0083,-0.0088,-0.0134,-0.018,-0.0206,-0.02,-0.0168,-0.0167,-0.0166,-0.0166,0,0.0395,0.0439,0.0488,0.0499,0.0526,0.0544,0.0556,0.0544,0.0572,0.0523,0.0527,0.0431,0.0397,0.0257,0.0098,0.0083,-0.0061,-0.0105,-0.0218,-0.0221,-0.0228,-0.023,-0.0207,-0.0207,-0.0207,-0.0207,-0.0207,0,0.0457,0.0497,0.0516,0.0544,0.0614,0.0605,0.0664,0.0657,0.0664,0.0709,0.0597,0.0609,0.0405,0.0303,0.0135,-0.0047,-0.0035,-0.0205,-0.0243,-0.0202,-0.02,-0.0215,-0.0214,-0.021,-0.0209,-0.0209,-0.0208,0,0.0512,0.0522,0.0585,0.0622,0.0641,0.069,0.0751,0.0796,0.078,0.0834,0.083,0.0746,0.0611,0.0403,0.0183,0.0018,-0.0166,-0.0237,-0.017,-0.0199,-0.0309,-0.0304,-0.0374,-0.0375,-0.0376,-0.0377,-0.0378,0,0.0545,0.0581,0.0647,0.0695,0.0712,0.0777,0.0834,0.0851,0.0913,0.0931,0.0977,0.0869,0.0823,0.0489,0.0182,-0.0111,-0.016,-0.0286,-0.0316,-0.0296,-0.0326,-0.0319,-0.0313,-0.0299,-0.0299,-0.0299,-0.0299,0,0.0612,0.0628,0.0681,0.0778,0.0843,0.0929,0.1011,0.1082,0.1118,0.1164,0.1218,0.1186,0.088,0.0602,0.0187,-0.0018,-0.024,-0.0298,-0.0294,-0.0259,-0.0231,-0.0258,-0.0253,-0.0299,-0.0299,-0.0299,-0.0299,-0.0299,0.066,0.0709,0.0776,0.0872,0.0955,0.1069,0.1152,0.1252,0.1366,0.1448,0.141,0.1357,0.1034,0.052,0.016,-0.0237,-0.0225,-0.037,-0.0367,-0.0365,-0.0338,-0.0314,-0.0392,-0.0393,-0.0393,-0.0393,-0.0394,0,0.0726,0.0778,0.0869,0.0978,0.1077,0.1111,0.1267,0.1352,0.1498,0.1562,0.16,0.1302,0.0988,0.0596,0.0024,-0.0313,-0.0341,-0.0433,-0.0385,-0.0381,-0.0378,-0.0351,-0.041,-0.0411,-0.0412,-0.0413,0,0,0.0762,0.0853,0.0896,0.106,0.1139,0.1278,0.1372,0.1502,0.1584,0.1651,0.1625,0.1564,0.1105,0.0694,0.0241,-0.009,-0.0168,-0.0164,-0.0113,0.0001,0.0007,-0.0303,-0.0252,0,0,0,0,0]}],[{"header":{"parameterUnit":"m.s-1","parameterCategory":2,"la1":30.2991,"la2":30.254,"lo1":-89.0895,"lo2":-89.0444,"dy":0.0017,"dx":0.0017,"nx":28,"ny":28,"refTime":"2025-01-13T03:00:00:Z","depth":"4","parameterNumber":2,"parameterNumberName":"U-component_of_CURRENTS"},"data":[0,0,0,0,0,0,0,0,0,0,0,0,0,0,0,0,0,0,0,0,0,0,0,0,0,0,0,0,0,0,0,0,0,0,0,0,0,0,0,0,0,0,0,0,0,0,0,0,0,0,0,0,0,0,0,0,0,0,0.2117,0.2118,0,0.2189,0.219,0.219,0.2255,0.2256,0.2257,0.2258,0.234,0.2342,0.2343,0,0,0,0,0,0,0,0,0,0,0,0,0,0.2019,0.202,0.2117,0.2118,0.2119,0.2189,0.219,0.2191,0.2255,0.2256,0.2257,0.2258,0.234,0.2341,0.2343,0,0,0,0,0,0,0,0,0,0,0,0,0,0.2071,0.2021,0.2117,0.2161,0.2166,0.2189,0.219,0.2191,0.2254,0.2256,0.2257,0.2259,0.2339,0.2341,0.2343,0.2327,0,0,0.2349,0.235,0,0,0,0,0,0,0,0,0.2068,0.2075,0.2154,0.2158,0.2164,0.2216,0.2186,0.2238,0.2254,0.2219,0.2258,0.2259,0.23,0.2305,0.2313,0.2331,0.2334,0.2349,0.2351,0.2351,0.2352,0,0,0,0,0,0,0,0.2065,0.2072,0.2143,0.2155,0.2161,0.2172,0.2181,0.2196,0.2249,0.2222,0.2227,0.2238,0.2303,0.2311,0.2315,0.2335,0.2349,0.2351,0.2352,0.2353,0.2482,0.2485,0,0,0,0,0,0,0.206,0.2068,0.2141,0.2146,0.2121,0.2173,0.2183,0.2196,0.2249,0.2259,0.2237,0.2241,0.2306,0.2313,0.2318,0.2425,0.2351,0.2353,0.2354,0.248,0.2483,0.2485,0,0,0,0,0,0,0.2057,0.2065,0.2138,0.211,0.2121,0.2174,0.2188,0.2197,0.2252,0.2261,0.2271,0.2288,0.2308,0.2316,0.2377,0.2424,0.2354,0.2356,0.2478,0.2481,0.2484,0.256,0,0,0,0,0,0,0.2054,0.2064,0.2093,0.211,0.2122,0.2182,0.2187,0.2197,0.2254,0.2262,0.2307,0.2313,0.231,0.2374,0.2379,0.2426,0.2358,0.2475,0.2479,0.2483,0.2555,0.2566,0.2575,0,0,0,0,0,0.205,0.2075,0.2094,0.2104,0.2153,0.2184,0.2192,0.2231,0.2256,0.2285,0.2323,0.2314,0.2404,0.2377,0.2382,0.2431,0.2473,0.2478,0.2483,0.255,0.2563,0.2575,0,0,0,0,0,0,0.2049,0.2085,0.2106,0.2143,0.2177,0.2196,0.2234,0.2257,0.2308,0.2332,0.2338,0.2348,0.242,0.2416,0.2385,0.2482,0.2439,0.2445,0.2488,0.2501,0.2511,0.2512,0.2359,0,0,0,0,0,0.206,0.2095,0.2124,0.2161,0.2182,0.2217,0.2244,0.2272,0.2308,0.2335,0.2366,0.2402,0.2435,0.2462,0.2487,0.2536,0.2537,0.2573,0.2583,0.2592,0.2598,0.2641,0.2655,0.2502,0.2502,0.2502,0,0,0.207,0.2097,0.2118,0.2165,0.2197,0.2231,0.2239,0.2294,0.2334,0.2333,0.2415,0.2441,0.2458,0.2517,0.2549,0.2526,0.2639,0.2598,0.2605,0.2606,0.2647,0.2662,0.2675,0.2506,0.2505,0.2504,0,0,0.209,0.2135,0.2166,0.2198,0.2256,0.2276,0.2302,0.235,0.2392,0.2457,0.2474,0.2532,0.2582,0.2604,0.2618,0.2698,0.2691,0.2717,0.277,0.2812,0.2825,0.2836,0.2864,0.2877,0.2722,0.2722,0.2722,0,0.2106,0.2146,0.2181,0.2217,0.2254,0.23,0.2341,0.2381,0.2447,0.2487,0.2499,0.2602,0.2619,0.2686,0.272,0.2721,0.2742,0.272,0.2825,0.2836,0.2846,0.2871,0.2885,0.2726,0.2726,0.2725,0.2725,0,0.2133,0.2184,0.221,0.2271,0.2312,0.2361,0.2412,0.2474,0.2532,0.2567,0.2667,0.2698,0.2758,0.2778,0.2775,0.2862,0.2853,0.2832,0.279,0.2865,0.2888,0.29,0.2732,0.2731,0.2729,0.2728,0,0,0.2113,0.2211,0.2224,0.2264,0.2352,0.2379,0.2465,0.2541,0.2603,0.2679,0.2759,0.2828,0.2862,0.2881,0.2896,0.2934,0.3024,0.2925,0.2925,0.2945,0.3124,0.2939,0.2934,0.303,0.3032,0.3034,0.3113,0,0.2131,0.22,0.2252,0.233,0.2368,0.2447,0.2516,0.2595,0.267,0.2757,0.2818,0.2897,0.2896,0.2943,0.2987,0.3019,0.3061,0.3005,0.3053,0.3054,0.2875,0.2943,0.3042,0.3122,0.3125,0.3127,0.3128,0,0.2131,0.2182,0.2259,0.2362,0.2389,0.2449,0.2572,0.2642,0.2766,0.283,0.2925,0.2973,0.3068,0.3044,0.3145,0.3117,0.3135,0.3145,0.3148,0.2954,0.2891,0.303,0.315,0.3148,0.3147,0.3145,0.3144,0,0.2074,0.2183,0.2249,0.2284,0.2405,0.2472,0.255,0.2674,0.2746,0.289,0.2959,0.3064,0.3138,0.3184,0.3227,0.3203,0.3316,0.3275,0.3124,0.3111,0.3219,0.3207,0.334,0.334,0.3339,0.3339,0.3339,0,0.2046,0.2102,0.2236,0.2266,0.2357,0.2455,0.2565,0.2659,0.2798,0.2875,0.3001,0.3066,0.3182,0.3256,0.3268,0.3236,0.3355,0.3142,0.3121,0.3251,0.3241,0.3228,0.3214,0.3342,0.3341,0.3341,0.334,0,0.1965,0.2056,0.2136,0.2279,0.2333,0.24,0.2569,0.2631,0.2786,0.2895,0.295,0.3108,0.3193,0.3278,0.3356,0.327,0.3264,0.3224,0.3375,0.336,0.302,0.301,0.3045,0.3039,0.3035,0.303,0.3027,0,0.1923,0.196,0.2126,0.2178,0.2254,0.2371,0.2444,0.2611,0.2677,0.2885,0.2918,0.3071,0.3151,0.3112,0.3217,0.3229,0.3193,0.3167,0.3069,0.3015,0.2992,0.2989,0.2986,0.3019,0.3018,0.3016,0.3015,0,0.1841,0.1925,0.1991,0.2099,0.219,0.2269,0.2391,0.2418,0.2597,0.2766,0.2804,0.2843,0.2936,0.2983,0.3028,0.3027,0.3165,0.3115,0.3123,0.303,0.2984,0.2965,0.2967,0.2998,0.3001,0.3002,0.3003,0,0.1788,0.1813,0.1915,0.1992,0.2098,0.2125,0.2205,0.2271,0.2353,0.2574,0.2583,0.274,0.2898,0.2881,0.292,0.2911,0.2855,0.2745,0.2771,0.2792,0.2673,0.2574,0.2451,0,0,0,0,0,0.1717,0.173,0.1795,0.1862,0.1957,0.2014,0.2147,0.2226,0.2399,0.2358,0.2458,0.2525,0.2569,0.2659,0.2599,0.2822,0.2879,0.2741,0.2767,0.2903,0.2923,0.2806,0,0,0,0,0,0,0.1667,0.1726,0.1745,0.1734,0.1752,0.1828,0.1899,0.2015,0.2003,0.219,0.2228,0.2376,0.2464,0.2576,0.2551,0.258,0.2545,0.2853,0.2846,0.2892,0.291,0.2926,0.2813,0,0,0,0,0]},{"header":{"parameterUnit":"m.s-1","parameterCategory":2,"la1":30.2991,"la2":30.254,"lo1":-89.0895,"lo2":-89.0444,"dy":0.0017,"dx":0.0017,"nx":28,"ny":28,"refTime":"2025-01-13T03:00:00:Z","depth":"4","parameterNumber":3,"parameterNumberName":"V-component_of_CURRENTS"},"data":[0,0,0,0,0,0,0,0,0,0,0,0,0,0,0,0,0,0,0,0,0,0,0,0,0,0,0,0,0,0,0,0,0,0,0,0,0,0,0,0,0,0,0,0,0,0,0,0,0,0,0,0,0,0,0,0,0,0,0.0146,0.0146,0,0.01,0.0099,0.0098,0.0067,0.0067,0.0067,0.0067,0.0007,0.0005,0.0004,0,0,0,0,0,0,0,0,0,0,0,0,0,0.0168,0.0168,0.0146,0.0146,0.0145,0.01,0.0099,0.0098,0.0067,0.0067,0.0067,0.0067,0.0007,0.0006,0.0004,0,0,0,0,0,0,0,0,0,0,0,0,0,0.0143,0.0168,0.0146,0.0125,0.0123,0.01,0.0099,0.0098,0.0067,0.0067,0.0067,0.0067,0.0008,0.0006,0.0003,-0.0006,0,0,-0.0003,-0.0004,0,0,0,0,0,0,0,0,0.0145,0.0142,0.0128,0.0126,0.0124,0.009,0.0085,0.0063,0.0067,0.0087,0.0067,0.0067,0.0034,0.003,0.002,-0.0009,-0.0012,-0.0003,-0.0005,-0.0006,-0.0006,0,0,0,0,0,0,0,0.0146,0.0144,0.0127,0.0128,0.0125,0.0104,0.0101,0.008,0.0061,0.0085,0.0083,0.008,0.0033,0.0022,0.0019,-0.0013,-0.0003,-0.0005,-0.0007,-0.0008,-0.0056,-0.0056,0,0,0,0,0,0,0.0156,0.0146,0.0128,0.0125,0.0135,0.0104,0.01,0.01,0.0062,0.0056,0.008,0.0078,0.0026,0.0021,0.0016,0.0014,-0.0006,-0.0008,-0.0009,-0.0056,-0.0056,-0.0056,0,0,0,0,0,0,0.0157,0.0155,0.013,0.0135,0.013,0.0104,0.0104,0.0099,0.0092,0.0058,0.0052,0.0078,0.0026,0.0019,0.0004,0.0011,-0.0009,-0.0011,-0.0056,-0.0056,-0.0056,0.0001,0,0,0,0,0,0,0.0158,0.0156,0.016,0.0136,0.0131,0.0124,0.0104,0.0099,0.009,0.0088,0.0054,0.0048,0.0025,0.0007,0.0002,0.0007,-0.0013,-0.0056,-0.0056,-0.0056,-0.0001,0.0003,0.0006,0,0,0,0,0,0.0159,0.0169,0.0161,0.0159,0.0137,0.0125,0.012,0.01,0.0091,0.0092,0.0069,0.0049,0.0004,0.0006,-0.0001,0.0004,-0.0056,-0.0056,-0.0056,-0.0003,0.0002,0.0006,0,0,0,0,0,0,0.0182,0.0166,0.0157,0.0162,0.0147,0.012,0.012,0.0105,0.0087,0.0086,0.0052,0.0045,0.0032,0.0009,0.0013,-0.0011,-0.0031,-0.0032,0.0012,0.0017,0.002,0.004,-0.0014,0,0,0,0,0,0.0189,0.0193,0.0172,0.0177,0.0172,0.0147,0.0139,0.0126,0.0107,0.0098,0.0074,0.0048,0.0026,0.0016,-0.0007,-0.0017,-0.0045,-0.0021,-0.0017,-0.0013,-0.0003,-0.0042,-0.0041,-0.0056,-0.0056,-0.0056,0,0,0.0199,0.0192,0.0194,0.0182,0.0169,0.0172,0.0142,0.0137,0.014,0.0095,0.0092,0.006,0.0026,0.0014,0.0006,-0.0003,-0.0025,-0.0013,-0.001,-0.0001,-0.0042,-0.0041,-0.0039,-0.0056,-0.0056,-0.0056,0,0,0.0225,0.0215,0.0228,0.0221,0.0208,0.0193,0.0195,0.0171,0.0161,0.0151,0.0119,0.0096,0.0062,0.0041,0.0025,0.0035,-0.0005,0.0023,0.0059,0.0021,0.0022,0.0023,-0.0012,-0.0015,0.0026,0.0026,0.0026,0,0.0238,0.0252,0.0229,0.024,0.0244,0.0208,0.0225,0.0209,0.0183,0.018,0.0158,0.0109,0.0077,0.0065,0.0065,0.0045,0.0016,0.0048,0.0027,0.0027,0.0026,-0.0009,-0.0013,0.0028,0.0028,0.0028,0.0028,0,0.0272,0.0284,0.0292,0.0297,0.0296,0.0304,0.0284,0.0278,0.0258,0.0238,0.0218,0.0169,0.0142,0.0122,0.0096,0.0081,0.0059,0.0036,0.002,0.0032,-0.0007,-0.0012,0.0032,0.0031,0.0031,0.003,0,0,0.0303,0.0315,0.032,0.0337,0.0329,0.0335,0.0342,0.0338,0.0348,0.0304,0.0308,0.0256,0.0223,0.0203,0.0162,0.0125,0.0092,0.0084,0.0081,0.0058,0.0007,-0.0003,-0.001,0.0063,0.0062,0.0062,-0.0019,0,0.0339,0.0378,0.0373,0.0413,0.0433,0.0413,0.0427,0.0417,0.0396,0.0387,0.0328,0.0313,0.0257,0.0245,0.0198,0.0122,0.0081,0.0116,-0.0008,-0.0011,-0.0016,-0.0015,0.006,-0.0023,-0.0024,-0.0025,-0.0026,0,0.0378,0.0401,0.0447,0.0482,0.049,0.0506,0.0526,0.0535,0.051,0.0488,0.0452,0.0406,0.0353,0.0299,0.0177,0.02,0.0112,0.0044,0.0039,0.0009,-0.003,-0.0039,-0.0035,-0.0034,-0.0034,-0.0033,-0.0032,0,0.0416,0.0457,0.0499,0.0509,0.0536,0.0557,0.0573,0.0566,0.0591,0.0554,0.0558,0.0478,0.0448,0.0329,0.0191,0.0182,0.0049,0.0017,-0.0077,-0.0079,-0.007,-0.007,-0.0074,-0.0073,-0.0073,-0.0073,-0.0073,0,0.0457,0.0493,0.0522,0.0544,0.0607,0.0607,0.0662,0.066,0.067,0.0702,0.0618,0.0616,0.0453,0.0359,0.0218,0.0062,0.0067,-0.0066,-0.0099,-0.0045,-0.0041,-0.0074,-0.0073,-0.0076,-0.0075,-0.0075,-0.0074,0,0.0489,0.0506,0.0562,0.0604,0.0627,0.0671,0.0736,0.0773,0.0768,0.0806,0.0803,0.0723,0.0595,0.0427,0.0234,0.0111,-0.0046,-0.0107,-0.0026,-0.0054,-0.0157,-0.0152,-0.0217,-0.0218,-0.0218,-0.0219,-0.022,0,0.0506,0.0538,0.061,0.0653,0.0676,0.0742,0.0792,0.0818,0.0861,0.0872,0.0896,0.0798,0.0715,0.0447,0.0252,-0.0015,-0.0062,-0.0148,-0.0165,-0.0146,-0.0171,-0.0165,-0.0159,-0.0221,-0.0221,-0.0222,-0.0222,0,0.0542,0.0568,0.0613,0.0704,0.0767,0.0844,0.0915,0.0956,0.0988,0.0992,0.0969,0.0831,0.0684,0.0459,0.0253,0.0058,-0.0094,-0.0158,-0.0158,-0.0175,-0.0152,-0.0175,-0.0169,-0.0225,-0.0224,-0.0224,-0.0224,0,0.0569,0.0606,0.0668,0.0748,0.0834,0.0915,0.0952,0.0998,0.104,0.1049,0.104,0.0874,0.0782,0.0497,0.0309,0.0115,0.0054,-0.0025,-0.0033,-0.0032,0.0037,0.0094,0.0075,0,0,0,0,0,0.0589,0.0632,0.0708,0.0791,0.0878,0.093,0.1022,0.105,0.1084,0.1079,0.1063,0.0924,0.0646,0.0531,0.0336,0.0272,0.0009,0.0033,-0.0088,-0.0241,-0.0238,-0.0191,0,0,0,0,0,0,0.0601,0.0671,0.0705,0.0811,0.0874,0.0972,0.1031,0.106,0.1058,0.1063,0.0926,0.0859,0.0596,0.0758,0.0328,0.027,0.0161,-0.0092,-0.0096,-0.0243,-0.024,-0.0237,-0.0188,0,0,0,0,0]}]]